Location: ????????
(60.4333°N, 46.4710°E)
Time: 19:30:38
(UTC+00:00)

Cosmos 1535 Rocket - Pass Details

Date: 25 November 2020
Orbit: 949 x 1004 km, 83.0° (Epoch: 17 January)

Event Time Altitude Azimuth Distance (km) Brightness Sun altitude
Rises 16:00:01 0° 345° (NNW) 3,658 7.8 -27.8°
Reaches altitude 10° 16:02:32 10° 347° (NNW) 2,702 7.0 -28.1°
Enters shadow 16:08:18 75° 27° (NNE) 991 4.3 -28.8°
